WetterOnline ( https://www.wetteronline.de )

Wetter aktuell Lankau

Aktuelles Wetter: Boizenburg (46m)

6-stündlich | Neueste Meldungen
Ortszeit Temperatur Wetter
Fr, 27.11. 7:00 0.8° C Nebel
Fr, 27.11. 1:00 5.0° C bewölkt
Do, 26.11. 19:00 6.8° C bedeckt
Do, 26.11. 13:00 8.3° C bewölkt
Do, 26.11. 7:00 5.9° C bedeckt
Do, 26.11. 1:00 0.2° C Nebel
Mi, 25.11. 19:00 2.0° C Nebel
Mi, 25.11. 13:00 3.2° C bedeckt
Ortszeit Temperatur Wetter
Fr, 27.11. 12:30 4.5° C bedeckt
Fr, 27.11. 12:20 4.5° C bedeckt
Fr, 27.11. 12:10 3.8° C bedeckt
Fr, 27.11. 12:00 2.7° C Nebel
Fr, 27.11. 11:50 2.7° C Nebel
Fr, 27.11. 11:40 2.2° C Nebel
Fr, 27.11. 11:30 1.8° C Nebel
Fr, 27.11. 11:00 1.0° C Nebel
Ortszeit Relative Feuchte Sichtweite
Fr, 27.11. 7:00 100% 0.3 km
Fr, 27.11. 1:00 99% 4.0 km
Do, 26.11. 19:00 99% 6 km
Do, 26.11. 13:00 99% 2.5 km
Do, 26.11. 7:00 100% 2.4 km
Do, 26.11. 1:00 100% 0.4 km
Mi, 25.11. 19:00 100% 0.4 km
Mi, 25.11. 13:00 98% 6 km
Ortszeit Relative Feuchte Sichtweite
Fr, 27.11. 12:30 99% 2.1 km
Fr, 27.11. 12:20 99% -
Fr, 27.11. 12:10 99% -
Fr, 27.11. 12:00 99% 0.3 km
Fr, 27.11. 11:50 99% -
Fr, 27.11. 11:40 99% -
Fr, 27.11. 11:30 99% 0.2 km
Fr, 27.11. 11:00 99% 0.2 km
Ortszeit Niederschlagsmenge Niederschlagsart
Fr, 27.11. 7:00 0.0 l/m2 in 12 Std. -
Fr, 27.11. 1:00 0.0 l/m2 in 6 Std. -
Do, 26.11. 19:00 0.3 l/m2 in 12 Std. Sprühregen
Do, 26.11. 13:00 0.3 l/m2 in 6 Std. Regen
Do, 26.11. 7:00 0.1 l/m2 in 12 Std. Regen
Do, 26.11. 1:00 0.0 l/m2 in 6 Std. -
Mi, 25.11. 19:00 0.0 l/m2 in 12 Std. -
Mi, 25.11. 13:00 0.0 l/m2 in 6 Std. -
Ortszeit Niederschlagsmenge Niederschlagsart
Fr, 27.11. 12:30 0.0 l/m2 in 1 Std. -
Fr, 27.11. 12:20 keine Meldung -
Fr, 27.11. 12:10 keine Meldung -
Fr, 27.11. 12:00 0.0 l/m2 in 1 Std. -
Fr, 27.11. 11:50 keine Meldung -
Fr, 27.11. 11:40 keine Meldung -
Fr, 27.11. 11:30 0.0 l/m2 in 1 Std. -
Fr, 27.11. 11:00 0.0 l/m2 in 1 Std. -
Ortszeit Stärke Spitze Richtung
km/h Bft. km/h Grad Sektor
Fr, 27.11. 7:00 0 0 11 - -
Fr, 27.11. 1:00 7 2 13 240° SW
Do, 26.11. 19:00 7 2 25 240° SW
Do, 26.11. 13:00 13 3 26 250° W
Do, 26.11. 7:00 13 3 24 210° SW
Do, 26.11. 1:00 7 2 22 150° SO
Mi, 25.11. 19:00 11 2 22 140° SO
Mi, 25.11. 13:00 11 2 24 140° SO
Ortszeit Stärke Spitze Richtung
km/h Bft. km/h Grad Sektor
Fr, 27.11. 12:30 7 2 11 180° S
Fr, 27.11. 12:20 7 2 - 180° S
Fr, 27.11. 12:10 4 1 - 160° S
Fr, 27.11. 12:00 4 1 7 110° O
Fr, 27.11. 11:50 4 1 - 110° O
Fr, 27.11. 11:40 4 1 - 90° O
Fr, 27.11. 11:30 2 1 7 100° O
Fr, 27.11. 11:00 4 1 7 100° O
Ortszeit Untergrenze Bedeckung Gattung
total tief tief mittel hoch
Fr, 27.11. 7:00 <30 m 6/8 0/8 - - -
Fr, 27.11. 1:00 3000 m 7/8 7/8 - - -
Do, 26.11. 19:00 2700 m 8/8 8/8 - - -
Do, 26.11. 13:00 90 m 7/8 7/8 - - -
Do, 26.11. 7:00 90 m 8/8 8/8 - - -
Do, 26.11. 1:00 <30 m 8/8 0/8 - - -
Mi, 25.11. 19:00 <30 m 8/8 0/8 - - -
Mi, 25.11. 13:00 90 m 8/8 8/8 - - -
Ortszeit Bedeckungsgrad in Achtel und Wolkenuntergrenze
Fr, 27.11. 12:30 8(<30m)
Fr, 27.11. 12:20 8(<30m)
Fr, 27.11. 12:10 8(<30m) 8(2100m)
Fr, 27.11. 12:00 8(<30m) 8(2100m)
Fr, 27.11. 11:50 8(<30m) 8(2100m)
Fr, 27.11. 11:40 8(<30m) 8(2100m)
Fr, 27.11. 11:30 8(<30m) 8(2100m)
Fr, 27.11. 11:00 8(<30m)
Ortszeit Luftdruck NN (hPa) Tendenz (hPa in 3 Std.)
Fr, 27.11. 7:00 1022 + 0,2
Fr, 27.11. 1:00 1021 + 0,3
Do, 26.11. 19:00 1021 + 0,8
Do, 26.11. 13:00 1019 + 0,3
Do, 26.11. 7:00 1018 - 0,1
Do, 26.11. 1:00 1019 0,0
Mi, 25.11. 19:00 1018 + 0,4
Mi, 25.11. 13:00 1018 - 1,0
Ortszeit Luftdruck NN (hPa) Tendenz (hPa in 3 Std.)
Fr, 27.11. 12:30 1023 0,0
Fr, 27.11. 12:20 1023 keine Meldung
Fr, 27.11. 12:10 1023 keine Meldung
Fr, 27.11. 12:00 1023 + 0,3
Fr, 27.11. 11:50 1023 keine Meldung
Fr, 27.11. 11:40 1023 keine Meldung
Fr, 27.11. 11:30 1023 + 0,4
Fr, 27.11. 11:00 1023 + 0,8
Ortszeit Schneehöhe (cm)
Fr, 27.11. 7:00 0
Fr, 27.11. 1:00 0
Do, 26.11. 19:00 0
Do, 26.11. 13:00 0
Do, 26.11. 7:00 0
Do, 26.11. 1:00 0
Mi, 25.11. 19:00 0
Mi, 25.11. 13:00 0
Ortszeit Schneehöhe (cm)
Fr, 27.11. 12:30 0
Fr, 27.11. 12:20 0
Fr, 27.11. 12:10 0
Fr, 27.11. 12:00 0
Fr, 27.11. 11:50 0
Fr, 27.11. 11:40 0
Fr, 27.11. 11:30 0
Fr, 27.11. 11:00 0
Link zu dieser Seite / Seite empfehlen

Das Wetter in ...